Date String (YYYY-MM-DD hh:mm:ss) UTC,Instrument flags,absolute air pressure of the measurement (hPa),sample flow rate (lpm),inlet stack bypass flow (lpm),air temperature of the measurement (°C),ambient temperature measured by the external sensor (°C),aerosol sample conditioner tube jacket temperature (°C),OPC LED temperature (°C),internal box temperature (°C),relative humidity of the measurement (%),span deviation,mass concentration of particles derived from Lorenz-Mie calculation of OPC scattering (μg/m³),mass concentration of particles derived from Lorenz-Mie calculation of OPC scattering (μg/m³),mass concentration of particles derived from Lorenz-Mie calculation of OPC scattering (μg/m³)
DateTimeUTC,F1_M11,P_M11,Q1_M11,Q2_M11,T1_M11,T2_M11,T3_M11,T4_M11,T5_M11,U1_M11,ZSPAN_M11,X0_M11,X2_M11,X1_M11
2023-06-19 02:00:00,SystemResetWarning,0824.0,5.01,000.00,029.5,025.4,000.0,037.9,031.1,23.6,0000.0,0007.31,0004.06,0003.69
2023-06-19 02:01:00,SystemResetWarning,0824.0,5.00,000.00,029.5,025.2,000.0,037.8,031.0,24.0,0000.0,0007.28,0004.07,0003.69
2023-06-19 02:02:00,SystemResetWarning,0824.0,5.01,000.00,029.4,025.6,000.0,037.8,030.8,25.5,0000.0,0006.75,0004.06,0003.69
2023-06-19 02:03:00,SystemResetWarning,0824.0,5.01,000.00,029.4,026.0,000.0,037.8,030.8,24.7,0000.0,0006.73,0004.07,0003.69
2023-06-19 02:04:00,SystemResetWarning,0824.0,5.00,000.00,029.4,026.4,000.0,037.9,030.8,23.5,0000.0,0007.32,0004.11,0003.71
2023-06-19 02:05:00,SystemResetWarning,0824.0,4.99,000.00,029.4,026.8,000.0,037.9,030.9,23.5,0000.0,0008.25,0004.11,0003.70
2023-06-19 02:06:00,SystemResetWarning,0824.0,4.99,000.00,029.4,027.2,000.0,037.9,031.0,23.1,0000.0,0008.34,0004.10,0003.70
2023-06-19 02:07:00,SystemResetWarning,0824.0,5.02,000.00,029.4,027.5,000.0,037.9,031.0,23.4,0000.0,0008.26,0004.09,0003.69
2023-06-19 02:08:00,SystemResetWarning,0824.0,5.00,000.00,029.5,027.7,000.0,037.9,031.1,23.1,0000.0,0008.20,0004.06,0003.69
2023-06-19 02:09:00,SystemResetWarning,0824.0,4.99,000.00,029.5,027.9,000.0,037.9,031.2,23.2,0000.0,0008.61,0004.06,0003.69
2023-06-19 02:10:00,SystemResetWarning,0824.0,5.00,000.00,029.5,028.0,000.0,038.0,031.2,23.5,0000.0,0008.90,0004.06,0003.69
2023-06-19 02:11:00,SystemResetWarning,0824.0,5.00,000.00,029.6,026.7,000.0,037.9,031.2,23.5,0000.0,0008.91,0004.06,0003.69
2023-06-19 02:12:00,SystemResetWarning,0824.1,5.00,000.00,029.5,024.6,000.0,037.9,031.0,23.4,0000.0,0008.99,0004.09,0003.69
2023-06-19 02:13:00,SystemResetWarning,0824.1,5.01,000.00,029.5,024.2,000.0,037.8,031.0,23.7,0000.0,0009.02,0004.10,0003.70
2023-06-19 02:14:00,SystemResetWarning,0824.1,5.01,000.00,029.4,024.5,000.0,037.8,030.7,23.9,0000.0,0008.98,0004.08,0003.70
2023-06-19 02:15:00,SystemResetWarning,0824.1,5.00,000.00,029.3,025.0,000.0,037.8,030.5,24.4,0000.0,0008.73,0004.04,0003.69
2023-06-19 02:16:00,SystemResetWarning,0824.1,5.00,000.00,029.3,025.6,000.0,037.8,030.6,23.8,0000.0,0007.74,0004.07,0003.70
2023-06-19 02:17:00,SystemResetWarning,0824.2,5.00,000.00,029.3,026.1,000.0,037.8,030.7,24.1,0000.0,0007.69,0004.08,0003.70
2023-06-19 02:18:00,SystemResetWarning,0824.2,5.00,000.00,029.2,026.5,000.0,037.8,030.7,24.0,0000.0,0007.85,0004.11,0003.72
2023-06-19 02:19:00,SystemResetWarning,0824.2,4.99,000.00,029.3,026.9,000.0,037.8,030.8,23.9,0000.0,0008.19,0004.14,0003.73
2023-06-19 02:20:00,SystemResetWarning,0824.1,5.00,000.00,029.3,027.2,000.0,037.8,030.9,23.9,0000.0,0008.03,0004.16,0003.74
2023-06-19 02:21:00,SystemResetWarning,0824.2,5.00,000.00,029.3,027.5,000.0,037.8,030.9,23.7,0000.0,0007.66,0004.16,0003.74
2023-06-19 02:22:00,SystemResetWarning,0824.2,4.99,000.00,029.4,027.7,000.0,037.9,031.0,23.6,0000.0,0007.66,0004.16,0003.74
2023-06-19 02:23:00,SystemResetWarning,0824.3,5.00,000.00,029.4,027.9,000.0,037.9,031.1,23.5,0000.0,0007.63,0004.14,0003.73
2023-06-19 02:24:00,SystemResetWarning,0824.3,5.00,000.00,029.5,028.1,000.0,037.9,031.1,23.5,0000.0,0007.75,0004.14,0003.74
2023-06-19 02:25:00,SystemResetWarning,0824.3,5.00,000.00,029.5,028.2,000.0,037.9,031.2,23.6,0000.0,0007.92,0004.13,0003.74
2023-06-19 02:26:00,SystemResetWarning,0824.3,4.99,000.00,029.5,027.7,000.0,037.9,031.2,23.5,0000.0,0007.97,0004.13,0003.73
2023-06-19 02:27:00,SystemResetWarning,0824.3,4.99,000.00,029.5,025.6,000.0,037.9,031.1,23.6,0000.0,0008.04,0004.10,0003.72
2023-06-19 02:28:00,SystemResetWarning,0824.3,5.01,000.00,029.5,025.1,000.0,037.8,031.1,23.7,0000.0,0008.06,0004.09,0003.71
2023-06-19 02:29:00,SystemResetWarning,0824.3,5.01,000.00,029.4,025.4,000.0,037.8,030.8,23.7,0000.0,0008.12,0004.11,0003.71
2023-06-19 02:30:00,SystemResetWarning,0824.3,4.99,000.00,029.4,025.8,000.0,037.8,030.8,24.0,0000.0,0007.78,0004.12,0003.71
2023-06-19 02:31:00,SystemResetWarning,0824.3,5.01,000.00,029.4,026.3,000.0,037.8,030.8,24.5,0000.0,0007.67,0004.11,0003.70
2023-06-19 02:32:00,SystemResetWarning,0824.3,5.00,000.00,029.4,026.7,000.0,037.9,030.9,24.3,0000.0,0007.62,0004.10,0003.70
2023-06-19 02:33:00,SystemResetWarning,0824.3,5.00,000.00,029.4,027.0,000.0,037.9,030.9,24.3,0000.0,0007.74,0004.11,0003.70
2023-06-19 02:34:00,SystemResetWarning,0824.3,5.00,000.00,029.4,027.3,000.0,037.9,031.0,24.3,0000.0,0007.92,0004.08,0003.70
2023-06-19 02:35:00,SystemResetWarning,0824.3,4.99,000.00,029.4,027.6,000.0,037.9,031.1,24.3,0000.0,0008.41,0004.09,0003.69
2023-06-19 02:36:00,SystemResetWarning,0824.3,5.00,000.00,029.5,027.8,000.0,037.9,031.1,24.1,0000.0,0008.40,0004.12,0003.68
2023-06-19 02:37:00,SystemResetWarning,0824.4,5.00,000.00,029.5,028.0,000.0,038.0,031.2,24.0,0000.0,0008.43,0004.14,0003.68
2023-06-19 02:38:00,SystemResetWarning,0824.4,5.00,000.00,029.6,027.9,000.0,038.0,031.3,23.9,0000.0,0008.44,0004.17,0003.68
2023-06-19 02:39:00,SystemResetWarning,0824.4,4.99,000.00,029.6,026.0,000.0,037.9,031.2,23.7,0000.0,0008.60,0004.18,0003.69
2023-06-19 02:40:00,SystemResetWarning,0824.3,5.01,000.00,029.5,025.1,000.0,037.9,031.1,23.5,0000.0,0008.60,0004.16,0003.69
2023-06-19 02:41:00,SystemResetWarning,0824.4,5.02,000.00,029.5,025.3,000.0,037.9,030.9,23.6,0000.0,0008.57,0004.14,0003.68
2023-06-19 02:42:00,SystemResetWarning,0824.4,5.00,000.00,029.4,025.7,000.0,037.9,030.8,23.9,0000.0,0008.71,0004.13,0003.69
2023-06-19 02:43:00,SystemResetWarning,0824.4,5.00,000.00,029.4,026.1,000.0,037.9,030.8,23.9,0000.0,0009.79,0004.16,0003.71
2023-06-19 02:44:00,SystemResetWarning,0824.4,5.00,000.00,029.4,026.5,000.0,037.9,030.8,23.8,0000.0,0009.90,0004.17,0003.72
2023-06-19 02:45:00,SystemResetWarning,0824.4,4.99,000.00,029.4,026.9,000.0,037.9,030.9,23.7,0000.0,0009.71,0004.20,0003.72
2023-06-19 02:46:00,SystemResetWarning,0824.4,4.98,000.00,029.4,027.3,000.0,037.9,031.0,23.7,0000.0,0009.10,0004.20,0003.73
2023-06-19 02:47:00,SystemResetWarning,0824.4,5.00,000.00,029.4,027.5,000.0,037.9,031.0,23.7,0000.0,0008.96,0004.18,0003.75
2023-06-19 02:48:00,SystemResetWarning,0824.4,5.01,000.00,029.5,027.7,000.0,038.0,031.1,23.5,0000.0,0009.00,0004.21,0003.76
2023-06-19 02:49:00,SystemResetWarning,0824.4,5.00,000.00,029.5,027.9,000.0,038.0,031.1,23.6,0000.0,0009.16,0004.19,0003.77
2023-06-19 02:50:00,SystemResetWarning,0824.4,5.00,000.00,029.6,028.1,000.0,038.0,031.2,23.6,0000.0,0008.95,0004.19,0003.78
2023-06-19 02:51:00,SystemResetWarning,0824.4,4.99,000.00,029.6,027.7,000.0,038.0,031.3,23.7,0000.0,0009.07,0004.21,0003.78
2023-06-19 02:52:00,SystemResetWarning,0824.4,5.00,000.00,029.6,025.7,000.0,037.9,031.2,23.7,0000.0,0009.62,0004.22,0003.79
2023-06-19 02:53:00,SystemResetWarning,0824.4,5.01,000.00,029.6,025.0,000.0,037.9,031.1,24.6,0000.0,0010.09,0004.24,0003.78
2023-06-19 02:54:00,SystemResetWarning,0824.4,5.00,000.00,029.5,025.3,000.0,037.9,030.9,25.6,0000.0,0009.72,0004.23,0003.78
2023-06-19 02:55:00,SystemResetWarning,0824.4,5.00,000.00,029.4,025.7,000.0,037.9,030.7,25.3,0000.0,0010.08,0004.24,0003.80
2023-06-19 02:56:00,SystemResetWarning,0824.4,5.00,000.00,029.4,026.1,000.0,037.9,030.8,27.7,0000.0,0010.30,0004.27,0003.83
2023-06-19 02:57:00,SystemResetWarning,0824.4,5.00,000.00,029.4,026.6,000.0,037.9,030.8,26.0,0000.0,0011.31,0004.33,0003.85
2023-06-19 02:58:00,SystemResetWarning,0824.5,5.00,000.00,029.4,026.9,000.0,037.9,030.9,25.0,0000.0,0011.82,0004.38,0003.90
2023-06-19 02:59:00,SystemResetWarning,0824.5,4.98,000.00,029.4,027.2,000.0,037.9,031.0,24.4,0000.0,0011.78,0004.39,0003.93
